Location: Catstown
(52.4386°N, 7.2633°W)
Time: 05:47:55
(UTC+00:00)

Cosmos 1464 Rocket - Pass Details

Date: 18 September 2020
Orbit: 953 x 1001 km, 82.9° (Epoch: 19 October)

Event Time Altitude Azimuth Distance (km) Brightness Sun altitude
Rises 19:43:27 0° 174° (S) 3,618 6.8 -10.9°
Reaches altitude 10° 19:45:57 10° 171° (S) 2,677 6.0 -11.3°
Maximum altitude 19:51:56 60° 93° (E) 1,091 4.0 -12.2°
Drops below altitude 10° 19:58:01 10° 16° (NNE) 2,713 6.4 -13.0°
Sets 20:00:34 0° 13° (NNE) 3,670 7.1 -13.4°
